Printer-friendly version

IAU Minor Planet Center

Minor Planet Center

MPEC 2008-F39 : 2006 OY10

The following Minor Planet Electronic Circular may be linked-to from your own Web pages, but must not otherwise be redistributed electronically.


Read MPEC 2008-F38 Read MPEC 2008-F40


M.P.E.C. 2008-F39                                Issued 2008 Mar. 27, 18:44 UT

     The Minor Planet Electronic Circulars contain information on unusual
         minor planets and routine data on comets.  They are published
   on behalf of Commission 20 of the International Astronomical Union by the
          Minor Planet Center, Smithsonian Astrophysical Observatory,
                          Cambridge, MA 02138, U.S.A.

             Prepared using the Tamkin Foundation Computer Network

                              MPC@CFA.HARVARD.EDU
          URL http://www.cfa.harvard.edu/iau/mpc.html  ISSN 1523-6714

                                   2006 OY10

                           Revision to MPEC 2006-O50

Additional Observations:
     K06O10Y 2C2008 01 08.54335910 16 34.282-36 51 44.36         22.7 R EF039568
     K06O10Y 2C2008 01 08.55097310 16 33.989-36 51 49.13                EF039568
     K06O10Y 2C2008 01 08.55849810 16 33.693-36 51 53.75         22.8 R EF039568
     K06O10Y 2C2008 01 09.54123510 15 56.219-37 02 03.28         22.9 R EF039568
     K06O10Y 2C2008 01 09.54862310 15 55.921-37 02 07.95                EF039568
     K06O10Y 2C2008 01 09.55607810 15 55.610-37 02 12.44                EF039568

Observer details:
568 Mauna Kea.  Observers F. Bernardi, M. Micheli.  Measurers F. Bernardi,
    D. J. Tholen.  2.24-m University of Hawaii reflector.

First and last observations above in comparison with prediction:
Residuals in seconds of arc, reference and Delta-T
080108 568  2.4-  0.4+    080109 568  2.5-  0.3+    MPO114778   +0.0062 day

Orbital elements:
2006 OY10                                                Earth MOID = 0.1360 AU
Epoch 2008 May 14.0 TT = JDT 2454600.5                  MPC
M 240.30905              (2000.0)            P               Q
n   0.40595358     Peri.   92.33128     +0.68224282     +0.55809190
a   1.8064189      Node   234.17004     -0.63744770     +0.77042300
e   0.5744608      Incl.   35.63049     +0.35805749     +0.30819123
P   2.43           H   18.7           G   0.15           U   0
Residuals in seconds of arc
060721 568  0.0   0.0     061125 H68  2.0+  0.7-    061213 734  0.4+  0.0
060721 568  0.0   0.0     061125 703  0.4-  0.1-    061213 734  0.6+  0.2-
060721 568  0.1+  0.1-    061125 703  0.0   0.3+    061214 G96  0.2-  0.0
060725 568  0.0   0.2+    061125 703  0.8-  0.1+    061214 G96  0.4-  0.3-
060725 568  0.0   0.1+    061125 703  0.3-  0.2+    061214 G96  0.1+  0.6+
060725 568  0.1+  0.1+    061126 H68  2.1+  1.1-    061214 G96  0.7-  0.1+
060726 568  0.0   0.0     061126 H68  1.8+  0.4-    061215 246  0.8+  0.2+
060726 568  0.0   0.1+    061126 H68  1.4+  0.6-    061215 246  0.2-  0.5+
060727 568  0.0   0.1+    061126 H68  1.9+  0.9-    061215 246  0.5-  1.3+
060727 568  0.1-  0.1+    061126 H68 (3.5+  1.4-)   061215 246  0.1-  0.7+
060727 568  0.0   0.1+    061126 113  0.4+  0.5-    061215 246  0.4+  0.8+
060811 568  0.1-  0.1-    061126 113  0.4+  0.3-    061216 696  0.2+  0.3+
060811 568  0.1-  0.0     061126 113  0.4+  0.0     061216 696  0.1+  0.1+
060811 568  0.2-  0.1-    061126 113  0.1+  0.1+    061222 696  0.5-  0.3-
061016 540  0.4+  0.2-    061126 113  0.1+  0.1+    061222 696  0.4+  0.5-
061016 540  1.2+  0.5-    061128 568  0.2-  0.1+    061225 568  0.2+  0.0
061118 941  0.5-  0.5+    061128 568  0.1-  0.0     061225 568  0.2+  0.0
061118 941  0.4-  0.3+    061128 568  0.2-  0.0     080108 568  0.0   0.0
061118 941  0.5-  0.4+    061212 703  1.1-  2.3+    080108 568  0.0   0.0
061118 941  0.4-  0.4+    061212 703  0.5+  0.5+    080108 568  0.0   0.1+
061118 941  0.0   0.3+    061212 703  0.4-  1.2+    080109 568  0.0   0.0
061125 H68  0.9+  0.7+    061212 703  0.5-  1.0+    080109 568  0.0   0.2-
061125 H68  0.8+  0.7-    061213 734  0.4+  0.1-    080109 568  0.0   0.1-
061125 H68  1.3+  1.1-    061213 734  0.5+  0.1+

Sonia Keys                   (C) Copyright 2008 MPC           M.P.E.C. 2008-F39

Read MPEC 2008-F38 Read MPEC 2008-F40


Our Web policy. Index to the CBAT/MPC/ICQ pages.


Valid HTML 4.01!